Location: Unspecified
(0.0000°N, 0.0000°E)
Time: 23:48:10
(UTC+00:00)

ISS - Pass Details

Date: 21 July 2016
Orbit: 402 x 407 km, 51.6° (Epoch: 23 November)

Event Time Altitude Azimuth Distance (km) Brightness Sun altitude
Rises 08:18:07 0° 305° (NW) 2,308 -0.3 30.6°
Reaches altitude 10° 08:20:25 10° 291° (WNW) 1,457 -1.3 31.1°
Maximum altitude 08:23:08 24° 234° (SW) 888 -2.4 31.8°
Drops below altitude 10° 08:25:54 10° 177° (S) 1,479 -1.1 32.4°
Sets 08:28:15 0° 163° (SSE) 2,353 0.0 32.9°
